Regional Weather Roundup
Issued by NWS

Home | Current Version | Previous Version | Graphics & Text | Print | Product List | Glossary On
Versions: 1 2 3 4 5 6 7 8 9 10 11 12 13 14 15 16 17 18 19 20 21 22 23 24 25 26 27 28 29 30 31 32 33 34 35 36 37 38 39 40 41 42 43 44 45 46 47 48 49 50
024
ASUS43 KLMK 310202
RWRKY
KENTUCKY REGIONAL WEATHER ROUNDUP
NATIONAL WEATHER SERVICE LOUISVILLE KY
1000 PM EDT SAT JUL 30 2016

NOTE "FAIR" INDICATES FEW OR NO CLOUDS BELOW 12,000 FEET
WITH NO SIGNIFICANT WEATHER AND/OR OBSTRUCTIONS TO VISIBILITY.

KYZ001>023-026-027-061>063-070>075-310300-
WESTERN AND SOUTH CENTRAL KENTUCKY

CITY           SKY/WX    TMP DP  RH WIND       PRES   REMARKS
PADUCAH        MOCLDY    76  72  87 E3        29.95S
HENDERSON      CLEAR     73  70  88 CALM      29.95S
OWENSBORO      PTCLDY    79  71  76 CALM      29.97R
HOPKINSVILLE   CLEAR     80  73  81 CALM      29.97R
BOWLING GREEN  PTCLDY    78  71  79 CALM      29.98R
GLASGOW        NOT AVBL
$$

KYZ024-025-028>034-038-045-046-053-310300-
NORTH CENTRAL KENTUCKY

CITY           SKY/WX    TMP DP  RH WIND       PRES   REMARKS
LOUISVILLE/SDF PTCLDY    77  70  79 SW7       29.97R
LOUISVILLE/LOU CLEAR     77  69  76 S3        29.97R
FORT KNOX      CLEAR     73  70  90 SW2       29.98R
$$

KYZ035>037-039>044-047>052-055>060-089>105-310300-
NORTHEAST KENTUCKY

CITY           SKY/WX    TMP DP  RH WIND       PRES   REMARKS
LEXINGTON      CLOUDY    74  69  85 CALM      30.00R
COVINGTON      PTCLDY    77  71  82 SW3       29.96R
FRANKFORT      CLEAR     73  70  90 SW5       29.98R
$$

KYZ054-064>069-076>088-106>120-310300-
SOUTHEAST KENTUCKY

CITY           SKY/WX    TMP DP  RH WIND       PRES   REMARKS
JACKSON        PTCLDY    74  69  85 VRB3      30.03R
LONDON         CLEAR     76  69  79 CALM      30.02R
SOMERSET       CLOUDY    75  70  83 CALM      30.02R
MIDDLESBORO    CLEAR     74  72  95 CALM      30.04R
MONTICELLO     CLEAR    N/A N/A N/A NE6       30.03R
$$





USA.gov is the U.S. government's official web portal to all federal, state and local government web resources and services.